Back to Top

Language: 

My Weather Underground Personal Weather Station Historical Data with Graphs...

Delerius Weather Station Historical Data
Daily Summary for March 17, 2017 Units:  Metric    English   Both
« Previous Day
Next Day »
Daily Weekly Monthly Yearly Custom
  High: Low: Average:
Temperature: 11.3 °C 3.7 °C 7.3 °C
Dew Point: 9.4 °C 1.3 °C 4.9 °C
Humidity: 91 % 80 % 85 %
Wind Speed: 33.8 km/h 4.8 km/h 20.3 km/h
Wind Gust: 57.9 km/h - -
Wind:- - WSW
Pressure: 1017.8 hPa 1000.9 hPa -
Precipitation: 0.25 mm    
Historical Graphs
 
 
Tabular Data for March 17, 2017
Time Temperature Dew Point Pressure Wind Wind Speed Wind Gust Humidity Rainfall Rate (Hourly) solar Conditions
00:00 4.8 °C 2 °C 1017.8 hPa West 12.9 km/h 20.9 km/h 82 % 0 mm 0 W/m2
00:05 4.7 °C 1.9 °C 1017.5 hPa West 12.9 km/h 20.9 km/h 82 % 0 mm 0 W/m2
00:10 4.7 °C 1.9 °C 1017.5 hPa West 11.3 km/h 19.3 km/h 82 % 0 mm 0 W/m2
00:15 4.6 °C 1.8 °C 1017.5 hPa West 9.7 km/h 17.7 km/h 82 % 0 mm 0 W/m2
00:20 4.4 °C 1.6 °C 1017.5 hPa West 9.7 km/h 14.5 km/h 82 % 0 mm 0 W/m2
00:25 4.3 °C 1.7 °C 1017.5 hPa West 8 km/h 12.9 km/h 83 % 0 mm 0 W/m2
00:30 4.2 °C 1.6 °C 1017.5 hPa WNW 8 km/h 12.9 km/h 83 % 0 mm 0 W/m2
00:35 4.1 °C 1.4 °C 1017.8 hPa West 8 km/h 12.9 km/h 83 % 0 mm 0 W/m2
00:40 4 °C 1.6 °C 1017.8 hPa West 6.4 km/h 11.3 km/h 84 % 0 mm 0 W/m2
00:45 3.9 °C 1.4 °C 1017.5 hPa West 4.8 km/h 12.9 km/h 84 % 0 mm 0 W/m2
00:50 3.9 °C 1.4 °C 1017.5 hPa West 8 km/h 14.5 km/h 84 % 0 mm 0 W/m2
00:55 3.8 °C 1.3 °C 1017.5 hPa West 9.7 km/h 14.5 km/h 84 % 0 mm 0 W/m2
01:00 3.8 °C 1.3 °C 1017.5 hPa WNW 8 km/h 14.5 km/h 84 % 0 mm 0 W/m2
01:05 3.8 °C 1.3 °C 1017.5 hPa WNW 9.7 km/h 12.9 km/h 84 % 0 mm 0 W/m2
01:10 3.8 °C 1.3 °C 1017.5 hPa WNW 9.7 km/h 16.1 km/h 84 % 0 mm 0 W/m2
01:15 3.7 °C 1.4 °C 1017.5 hPa WNW 9.7 km/h 16.1 km/h 85 % 0 mm 0 W/m2
01:20 3.7 °C 1.4 °C 1017.5 hPa WNW 9.7 km/h 16.1 km/h 85 % 0 mm 0 W/m2
01:25 3.7 °C 1.4 °C 1017.5 hPa WNW 9.7 km/h 16.1 km/h 85 % 0 mm 0 W/m2
01:30 3.7 °C 1.4 °C 1017.5 hPa WNW 8 km/h 14.5 km/h 85 % 0 mm 0 W/m2
01:35 3.7 °C 1.4 °C 1017.5 hPa WNW 8 km/h 12.9 km/h 85 % 0 mm 0 W/m2
01:40 3.7 °C 1.4 °C 1017.5 hPa West 8 km/h 12.9 km/h 85 % 0 mm 0 W/m2
01:41 3.7 °C 1.4 °C 1017.5 hPa West 8 km/h 12.9 km/h 85 % 0 mm 0 W/m2
01:46 3.7 °C 1.4 °C 1017.5 hPa West 8 km/h 16.1 km/h 85 % 0 mm 0 W/m2
01:51 3.7 °C 1.4 °C 1017.2 hPa West 8 km/h 17.7 km/h 85 % 0 mm 0 W/m2
01:56 3.8 °C 1.5 °C 1017.2 hPa West 9.7 km/h 17.7 km/h 85 % 0 mm 0 W/m2
02:01 3.9 °C 1.6 °C 1017.2 hPa West 11.3 km/h 20.9 km/h 85 % 0 mm 0 W/m2
02:06 4.1 °C 1.6 °C 1017.2 hPa West 12.9 km/h 22.5 km/h 84 % 0 mm 0 W/m2
02:11 4.2 °C 1.7 °C 1017.2 hPa West 12.9 km/h 22.5 km/h 84 % 0 mm 0 W/m2
02:16 4.3 °C 1.7 °C 1017.2 hPa West 11.3 km/h 20.9 km/h 83 % 0 mm 0 W/m2
02:21 4.3 °C 1.7 °C 1016.8 hPa West 9.7 km/h 17.7 km/h 83 % 0 mm 0 W/m2
02:26 4.2 °C 1.6 °C 1016.8 hPa West 8 km/h 16.1 km/h 83 % 0 mm 0 W/m2
02:31 4.2 °C 1.6 °C 1016.8 hPa West 8 km/h 16.1 km/h 83 % 0 mm 0 W/m2
02:36 4.2 °C 1.7 °C 1016.8 hPa West 9.7 km/h 19.3 km/h 84 % 0 mm 0 W/m2
02:41 4.2 °C 1.7 °C 1016.5 hPa West 9.7 km/h 19.3 km/h 84 % 0 mm 0 W/m2
02:46 4.2 °C 1.7 °C 1016.5 hPa West 11.3 km/h 17.7 km/h 84 % 0 mm 0 W/m2
02:51 4.2 °C 1.7 °C 1016.5 hPa West 12.9 km/h 19.3 km/h 84 % 0 mm 0 W/m2
02:56 4.3 °C 1.7 °C 1016.5 hPa West 12.9 km/h 20.9 km/h 83 % 0 mm 0 W/m2
03:01 4.3 °C 1.7 °C 1016.5 hPa West 12.9 km/h 20.9 km/h 83 % 0 mm 0 W/m2
03:06 4.3 °C 1.7 °C 1016.5 hPa West 11.3 km/h 19.3 km/h 83 % 0 mm 0 W/m2
03:11 4.3 °C 1.7 °C 1016.5 hPa West 14.5 km/h 25.7 km/h 83 % 0 mm 0 W/m2
03:16 4.4 °C 1.8 °C 1016.5 hPa West 14.5 km/h 25.7 km/h 83 % 0 mm 0 W/m2
03:21 4.4 °C 1.8 °C 1016.5 hPa WSW 14.5 km/h 20.9 km/h 83 % 0 mm 0 W/m2
03:26 4.6 °C 1.9 °C 1016.5 hPa WSW 14.5 km/h 29 km/h 83 % 0 mm 0 W/m2
03:31 4.7 °C 2.1 °C 1016.1 hPa WSW 16.1 km/h 29 km/h 83 % 0 mm 0 W/m2
03:36 4.8 °C 2 °C 1016.1 hPa WSW 17.7 km/h 30.6 km/h 82 % 0 mm 0 W/m2
03:41 4.8 °C 2 °C 1016.1 hPa WSW 17.7 km/h 30.6 km/h 82 % 0 mm 0 W/m2
03:46 4.8 °C 2 °C 1015.8 hPa WSW 19.3 km/h 33.8 km/h 82 % 0 mm 0 W/m2
03:51 4.9 °C 2.1 °C 1015.8 hPa WSW 19.3 km/h 33.8 km/h 82 % 0 mm 0 W/m2
03:57 4.9 °C 2.1 °C 1016.1 hPa WSW 19.3 km/h 37 km/h 82 % 0 mm 0 W/m2
04:02 5 °C 2.2 °C 1016.1 hPa WSW 19.3 km/h 37 km/h 82 % 0 mm 0 W/m2
04:07 5.1 °C 2.1 °C 1016.1 hPa WSW 20.9 km/h 35.4 km/h 81 % 0 mm 0 W/m2
04:12 5.1 °C 2.1 °C 1016.1 hPa WSW 20.9 km/h 35.4 km/h 81 % 0 mm 0 W/m2
04:17 5.1 °C 2.1 °C 1016.1 hPa WSW 19.3 km/h 33.8 km/h 81 % 0 mm 0 W/m2
04:22 5.1 °C 2.1 °C 1016.1 hPa WSW 19.3 km/h 33.8 km/h 81 % 0 mm 0 W/m2
04:27 5 °C 2 °C 1015.8 hPa WSW 17.7 km/h 33.8 km/h 81 % 0 mm 0 W/m2
04:32 4.9 °C 2.1 °C 1015.8 hPa West 16.1 km/h 29 km/h 82 % 0 mm 0 W/m2
04:37 4.9 °C 2.1 °C 1015.8 hPa WSW 17.7 km/h 29 km/h 82 % 0 mm 0 W/m2
04:42 4.8 °C 2 °C 1015.8 hPa West 17.7 km/h 32.2 km/h 82 % 0 mm 0 W/m2
04:47 4.8 °C 2 °C 1015.8 hPa West 19.3 km/h 33.8 km/h 82 % 0 mm 0 W/m2
04:52 4.8 °C 2 °C 1015.8 hPa West 20.9 km/h 33.8 km/h 82 % 0 mm 0 W/m2
04:57 4.8 °C 2 °C 1015.8 hPa West 20.9 km/h 32.2 km/h 82 % 0 mm 0 W/m2
05:02 4.8 °C 1.8 °C 1015.5 hPa West 19.3 km/h 32.2 km/h 81 % 0 mm 0 W/m2
05:07 4.8 °C 1.8 °C 1015.5 hPa West 17.7 km/h 32.2 km/h 81 % 0 mm 0 W/m2
05:12 4.8 °C 1.8 °C 1015.5 hPa West 17.7 km/h 32.2 km/h 81 % 0 mm 0 W/m2
05:17 4.8 °C 1.8 °C 1015.5 hPa West 17.7 km/h 32.2 km/h 81 % 0 mm 0 W/m2
05:22 4.8 °C 1.8 °C 1015.5 hPa West 19.3 km/h 32.2 km/h 81 % 0 mm 0 W/m2
05:27 4.9 °C 1.9 °C 1015.5 hPa West 20.9 km/h 33.8 km/h 81 % 0 mm 0 W/m2
05:32 4.9 °C 1.9 °C 1015.5 hPa West 19.3 km/h 33.8 km/h 81 % 0 mm 0 W/m2
05:37 4.9 °C 1.9 °C 1015.1 hPa West 19.3 km/h 33.8 km/h 81 % 0 mm 0 W/m2
05:42 5 °C 2 °C 1015.5 hPa West 19.3 km/h 33.8 km/h 81 % 0 mm 0 W/m2
05:47 5 °C 2 °C 1015.1 hPa WSW 20.9 km/h 35.4 km/h 81 % 0 mm 0 W/m2
05:52 5 °C 2 °C 1015.1 hPa WSW 20.9 km/h 35.4 km/h 81 % 0 mm 0 W/m2
05:58 5 °C 2 °C 1015.1 hPa WSW 19.3 km/h 33.8 km/h 81 % 0 mm 0 W/m2
06:03 5 °C 2 °C 1015.1 hPa WSW 19.3 km/h 35.4 km/h 81 % 0 mm 0 W/m2
06:08 4.9 °C 2.1 °C 1015.1 hPa WSW 17.7 km/h 35.4 km/h 82 % 0 mm 0 W/m2
06:13 4.9 °C 2.1 °C 1015.1 hPa WSW 16.1 km/h 29 km/h 82 % 0 mm 0 W/m2
06:18 4.8 °C 2.2 °C 1015.1 hPa WSW 16.1 km/h 30.6 km/h 83 % 0 mm 0 W/m2
06:23 4.8 °C 2.2 °C 1015.1 hPa West 16.1 km/h 30.6 km/h 83 % 0 mm 0 W/m2
06:28 4.8 °C 2.2 °C 1015.1 hPa WSW 16.1 km/h 35.4 km/h 83 % 0 mm 5 W/m2
06:33 4.8 °C 2.3 °C 1015.1 hPa WSW 17.7 km/h 35.4 km/h 84 % 0 mm 7 W/m2
06:38 4.8 °C 2.3 °C 1015.1 hPa West 17.7 km/h 30.6 km/h 84 % 0 mm 11 W/m2
06:43 4.9 °C 2.4 °C 1015.1 hPa West 17.7 km/h 29 km/h 84 % 0 mm 14 W/m2
06:48 4.9 °C 2.4 °C 1015.1 hPa West 14.5 km/h 29 km/h 84 % 0 mm 16 W/m2
06:53 4.9 °C 2.4 °C 1015.1 hPa WSW 16.1 km/h 29 km/h 84 % 0 mm 18 W/m2
06:58 4.9 °C 2.3 °C 1015.1 hPa WSW 16.1 km/h 32.2 km/h 83 % 0 mm 23 W/m2
07:03 4.9 °C 2.3 °C 1015.1 hPa WSW 16.1 km/h 32.2 km/h 83 % 0 mm 28 W/m2
07:08 4.9 °C 2.3 °C 1015.1 hPa WSW 16.1 km/h 33.8 km/h 83 % 0 mm 35 W/m2
07:13 4.8 °C 2.3 °C 1015.1 hPa West 17.7 km/h 33.8 km/h 84 % 0 mm 40 W/m2
07:18 4.8 °C 2.3 °C 1015.1 hPa West 17.7 km/h 30.6 km/h 84 % 0 mm 49 W/m2
07:23 4.8 °C 2.3 °C 1015.1 hPa WSW 16.1 km/h 30.6 km/h 84 % 0 mm 54 W/m2
07:28 4.8 °C 2.3 °C 1015.1 hPa West 16.1 km/h 30.6 km/h 84 % 0 mm 63 W/m2
07:33 4.8 °C 2.3 °C 1015.1 hPa WSW 14.5 km/h 24.1 km/h 84 % 0 mm 69 W/m2
07:38 4.9 °C 2.4 °C 1015.1 hPa WSW 16.1 km/h 30.6 km/h 84 % 0 mm 74 W/m2
07:43 4.9 °C 2.4 °C 1015.1 hPa West 17.7 km/h 30.6 km/h 84 % 0 mm 86 W/m2
07:48 5 °C 2.7 °C 1014.8 hPa West 17.7 km/h 29 km/h 85 % 0 mm 100 W/m2
07:53 5.1 °C 2.8 °C 1014.8 hPa West 19.3 km/h 30.6 km/h 85 % 0 mm 120 W/m2
07:58 5.2 °C 2.9 °C 1014.8 hPa WSW 19.3 km/h 33.8 km/h 85 % 0 mm 125 W/m2
08:03 5.3 °C 3 °C 1014.8 hPa WSW 17.7 km/h 33.8 km/h 85 % 0 mm 134 W/m2
08:08 5.4 °C 3.1 °C 1015.1 hPa West 19.3 km/h 35.4 km/h 85 % 0 mm 132 W/m2
08:13 5.6 °C 3.3 °C 1014.8 hPa West 20.9 km/h 35.4 km/h 85 % 0 mm 120 W/m2
08:18 5.6 °C 3.3 °C 1014.8 hPa West 22.5 km/h 35.4 km/h 85 % 0 mm 118 W/m2
08:23 5.7 °C 3.4 °C 1014.8 hPa West 22.5 km/h 37 km/h 85 % 0 mm 141 W/m2
08:28 5.7 °C 3.4 °C 1014.8 hPa WSW 20.9 km/h 37 km/h 85 % 0 mm 153 W/m2
08:33 5.7 °C 3.4 °C 1014.8 hPa WSW 19.3 km/h 38.6 km/h 85 % 0 mm 139 W/m2
08:38 5.8 °C 3.6 °C 1014.8 hPa WSW 20.9 km/h 38.6 km/h 86 % 0 mm 165 W/m2
08:43 5.9 °C 3.6 °C 1014.8 hPa WSW 20.9 km/h 33.8 km/h 85 % 0 mm 128 W/m2
08:49 5.9 °C 3.6 °C 1014.8 hPa WSW 22.5 km/h 40.2 km/h 85 % 0 mm 165 W/m2
08:54 6.1 °C 3.8 °C 1014.8 hPa WSW 22.5 km/h 40.2 km/h 85 % 0 mm 306 W/m2
08:59 6.3 °C 3.9 °C 1014.4 hPa WSW 22.5 km/h 37 km/h 85 % 0 mm 271 W/m2
09:04 6.6 °C 4.1 °C 1014.4 hPa WSW 22.5 km/h 38.6 km/h 84 % 0 mm 364 W/m2
09:09 6.7 °C 4.2 °C 1014.4 hPa WSW 22.5 km/h 38.6 km/h 84 % 0 mm 427 W/m2
09:14 6.7 °C 4.2 °C 1014.4 hPa WSW 24.1 km/h 45.1 km/h 84 % 0 mm 272 W/m2
09:19 6.9 °C 4.4 °C 1014.4 hPa WSW 22.5 km/h 45.1 km/h 84 % 0 mm 283 W/m2
09:24 7.1 °C 4.4 °C 1014.4 hPa WSW 22.5 km/h 37 km/h 83 % 0 mm 316 W/m2
09:29 7.2 °C 4.5 °C 1014.4 hPa WSW 22.5 km/h 35.4 km/h 83 % 0 mm 292 W/m2
09:34 7.4 °C 4.7 °C 1014.4 hPa WSW 20.9 km/h 38.6 km/h 83 % 0 mm 520 W/m2
09:39 7.6 °C 4.7 °C 1014.1 hPa WSW 24.1 km/h 40.2 km/h 82 % 0 mm 454 W/m2
09:44 7.7 °C 4.8 °C 1014.4 hPa WSW 25.7 km/h 40.2 km/h 82 % 0 mm 380 W/m2
09:49 7.7 °C 4.7 °C 1014.4 hPa WSW 25.7 km/h 45.1 km/h 81 % 0 mm 353 W/m2
09:54 7.7 °C 4.7 °C 1014.4 hPa WSW 27.4 km/h 45.1 km/h 81 % 0 mm 236 W/m2
09:59 7.7 °C 4.7 °C 1014.4 hPa WSW 27.4 km/h 43.5 km/h 81 % 0 mm 202 W/m2
10:04 7.7 °C 4.8 °C 1014.4 hPa WSW 25.7 km/h 45.1 km/h 82 % 0 mm 144 W/m2
10:09 7.6 °C 4.7 °C 1014.4 hPa WSW 22.5 km/h 45.1 km/h 82 % 0 mm 325 W/m2
10:14 7.7 °C 4.8 °C 1014.4 hPa WSW 22.5 km/h 38.6 km/h 82 % 0 mm 360 W/m2
10:19 7.8 °C 5.3 °C 1014.1 hPa WSW 20.9 km/h 38.6 km/h 84 % 0 mm 468 W/m2
10:24 8 °C 5.4 °C 1014.1 hPa West 19.3 km/h 37 km/h 84 % 0 mm 367 W/m2
10:29 8 °C 5.4 °C 1014.1 hPa WSW 20.9 km/h 37 km/h 84 % 0 mm 394 W/m2
10:34 8 °C 5.4 °C 1014.1 hPa WSW 22.5 km/h 35.4 km/h 84 % 0 mm 336 W/m2
10:39 8.1 °C 5.6 °C 1013.8 hPa West 24.1 km/h 35.4 km/h 84 % 0 mm 482 W/m2
10:44 8.2 °C 5.5 °C 1013.8 hPa WSW 25.7 km/h 41.8 km/h 83 % 0 mm 538 W/m2
10:49 8.2 °C 5.5 °C 1013.8 hPa WSW 27.4 km/h 43.5 km/h 83 % 0 mm 371 W/m2
10:54 8.4 °C 5.7 °C 1013.8 hPa WSW 25.7 km/h 43.5 km/h 83 % 0 mm 826 W/m2
10:59 8.6 °C 5.3 °C 1013.8 hPa WSW 25.7 km/h 45.1 km/h 80 % 0 mm 253 W/m2
11:04 8.6 °C 5.7 °C 1013.8 hPa WSW 24.1 km/h 45.1 km/h 82 % 0 mm 366 W/m2
11:09 8.6 °C 5.5 °C 1013.8 hPa WSW 24.1 km/h 41.8 km/h 81 % 0 mm 243 W/m2
11:14 8.5 °C 5.4 °C 1013.4 hPa WSW 27.4 km/h 45.1 km/h 81 % 0 mm 276 W/m2
11:19 8.6 °C 5.5 °C 1013.8 hPa WSW 27.4 km/h 45.1 km/h 81 % 0 mm 371 W/m2
11:24 8.6 °C 5.5 °C 1013.8 hPa WSW 25.7 km/h 41.8 km/h 81 % 0 mm 225 W/m2
11:25 8.6 °C 5.5 °C 1013.8 hPa WSW 25.7 km/h 41.8 km/h 81 % 0 mm 248 W/m2
11:30 8.6 °C 5.5 °C 1013.4 hPa West 25.7 km/h 41.8 km/h 81 % 0 mm 301 W/m2
11:35 8.7 °C 5.6 °C 1013.4 hPa WSW 24.1 km/h 40.2 km/h 81 % 0 mm 315 W/m2
11:40 8.7 °C 5.6 °C 1013.8 hPa WSW 24.1 km/h 43.5 km/h 81 % 0 mm 246 W/m2
11:45 8.6 °C 5.5 °C 1013.4 hPa WSW 25.7 km/h 43.5 km/h 81 % 0 mm 295 W/m2
11:50 8.6 °C 5.5 °C 1013.4 hPa WSW 24.1 km/h 40.2 km/h 81 % 0 mm 309 W/m2
11:55 8.6 °C 5.5 °C 1013.4 hPa WSW 24.1 km/h 40.2 km/h 81 % 0 mm 248 W/m2
12:00 8.6 °C 5.5 °C 1013.4 hPa WSW 22.5 km/h 38.6 km/h 81 % 0 mm 151 W/m2
12:05 8.5 °C 5.6 °C 1013.4 hPa WSW 22.5 km/h 37 km/h 82 % 0 mm 86 W/m2
12:10 8.3 °C 5.4 °C 1013.1 hPa WSW 22.5 km/h 37 km/h 82 % 0 mm 74 W/m2
12:15 8.3 °C 5.6 °C 1013.1 hPa WSW 19.3 km/h 38.6 km/h 83 % 0 mm 62 W/m2
12:20 8.2 °C 5.5 °C 1013.1 hPa WSW 19.3 km/h 38.6 km/h 83 % 0 mm 47 W/m2
12:25 8.2 °C 5.5 °C 1013.1 hPa West 20.9 km/h 37 km/h 83 % 0 mm 67 W/m2
12:30 8.2 °C 5.5 °C 1013.1 hPa West 22.5 km/h 38.6 km/h 83 % 0 mm 54 W/m2
12:35 8.2 °C 5.7 °C 1013.1 hPa WSW 20.9 km/h 38.6 km/h 84 % 0 mm 86 W/m2
12:40 8.1 °C 5.7 °C 1012.8 hPa WSW 19.3 km/h 32.2 km/h 85 % 0 mm 90 W/m2
12:45 8.1 °C 5.9 °C 1012.8 hPa WSW 19.3 km/h 33.8 km/h 86 % 0 mm 139 W/m2
12:50 8.1 °C 6.1 °C 1012.8 hPa WSW 19.3 km/h 33.8 km/h 87 % 0.25 mm 206 W/m2
12:55 8.1 °C 6.1 °C 1012.4 hPa WSW 20.9 km/h 32.2 km/h 87 % 0.25 mm 178 W/m2
13:00 8.1 °C 6.2 °C 1012.4 hPa WSW 19.3 km/h 32.2 km/h 88 % 0.25 mm 141 W/m2
13:05 8.2 °C 6.2 °C 1012.4 hPa WSW 17.7 km/h 29 km/h 87 % 0.25 mm 109 W/m2
13:10 8.2 °C 6 °C 1012.1 hPa WSW 19.3 km/h 37 km/h 86 % 0.25 mm 98 W/m2
13:15 8.2 °C 6 °C 1012.1 hPa WSW 22.5 km/h 37 km/h 86 % 0.25 mm 83 W/m2
13:20 8.3 °C 5.9 °C 1011.7 hPa WSW 22.5 km/h 37 km/h 85 % 0.25 mm 98 W/m2
13:25 8.3 °C 5.9 °C 1011.7 hPa WSW 22.5 km/h 38.6 km/h 85 % 0.25 mm 81 W/m2
13:27 8.3 °C 5.9 °C 1011.7 hPa WSW 22.5 km/h 38.6 km/h 85 % 0.25 mm 90 W/m2
13:31 8.3 °C 5.9 °C 1011.7 hPa WSW 22.5 km/h 38.6 km/h 85 % 0.25 mm 86 W/m2
13:32 8.3 °C 5.9 °C 1011.7 hPa WSW 24.1 km/h 38.6 km/h 85 % 0.25 mm 88 W/m2
13:37 8.3 °C 6.1 °C 1011.7 hPa WSW 22.5 km/h 38.6 km/h 86 % 0.25 mm 142 W/m2
13:42 8.3 °C 5.9 °C 1011.4 hPa WSW 22.5 km/h 38.6 km/h 85 % 0.25 mm 139 W/m2
13:47 8.3 °C 6.1 °C 1011.1 hPa WSW 22.5 km/h 38.6 km/h 86 % 0 mm 148 W/m2
13:52 8.4 °C 6.2 °C 1011.1 hPa SW 19.3 km/h 33.8 km/h 86 % 0 mm 137 W/m2
13:57 8.6 °C 6.2 °C 1011.1 hPa WSW 19.3 km/h 35.4 km/h 85 % 0 mm 146 W/m2
14:02 8.6 °C 6.2 °C 1010.7 hPa WSW 19.3 km/h 35.4 km/h 85 % 0 mm 93 W/m2
14:08 8.7 °C 6.2 °C 1011.1 hPa WSW 17.7 km/h 30.6 km/h 84 % 0 mm 83 W/m2
14:13 8.7 °C 6.2 °C 1011.1 hPa WSW 17.7 km/h 30.6 km/h 84 % 0 mm 81 W/m2
14:18 8.8 °C 6.1 °C 1010.7 hPa WSW 19.3 km/h 32.2 km/h 83 % 0 mm 76 W/m2
14:23 8.8 °C 6.1 °C 1010.7 hPa WSW 19.3 km/h 33.8 km/h 83 % 0 mm 90 W/m2
14:28 8.8 °C 5.9 °C 1010.4 hPa WSW 22.5 km/h 40.2 km/h 82 % 0 mm 93 W/m2
14:33 8.9 °C 6 °C 1010 hPa WSW 22.5 km/h 40.2 km/h 82 % 0 mm 84 W/m2
14:38 8.9 °C 6 °C 1010 hPa WSW 20.9 km/h 33.8 km/h 82 % 0 mm 84 W/m2
14:43 8.9 °C 6 °C 1010 hPa WSW 19.3 km/h 37 km/h 82 % 0 mm 70 W/m2
14:48 8.9 °C 6.2 °C 1010 hPa WSW 19.3 km/h 37 km/h 83 % 0 mm 53 W/m2
14:53 8.9 °C 6.2 °C 1009.7 hPa WSW 20.9 km/h 32.2 km/h 83 % 0 mm 49 W/m2
14:58 8.8 °C 6.2 °C 1009.7 hPa WSW 17.7 km/h 33.8 km/h 84 % 0 mm 51 W/m2
15:03 8.8 °C 6.2 °C 1009.4 hPa WSW 17.7 km/h 33.8 km/h 84 % 0 mm 77 W/m2
15:08 8.8 °C 6.2 °C 1009.4 hPa WSW 19.3 km/h 40.2 km/h 84 % 0 mm 84 W/m2
15:13 8.9 °C 6.2 °C 1009 hPa WSW 19.3 km/h 40.2 km/h 83 % 0 mm 72 W/m2
15:18 8.9 °C 6 °C 1009 hPa WSW 24.1 km/h 51.5 km/h 82 % 0 mm 74 W/m2
15:23 9 °C 6.3 °C 1009 hPa WSW 25.7 km/h 51.5 km/h 83 % 0 mm 65 W/m2
15:28 8.9 °C 6 °C 1008.7 hPa WSW 22.5 km/h 43.5 km/h 82 % 0 mm 84 W/m2
15:33 8.9 °C 6 °C 1008.7 hPa WSW 24.1 km/h 43.5 km/h 82 % 0 mm 76 W/m2
15:38 8.9 °C 6 °C 1008.7 hPa WSW 22.5 km/h 40.2 km/h 82 % 0 mm 54 W/m2
15:43 8.8 °C 6.1 °C 1008.7 hPa WSW 20.9 km/h 40.2 km/h 83 % 0 mm 58 W/m2
15:48 8.7 °C 6.2 °C 1008.4 hPa WSW 20.9 km/h 41.8 km/h 84 % 0 mm 56 W/m2
15:53 8.6 °C 5.9 °C 1008.4 hPa WSW 22.5 km/h 41.8 km/h 83 % 0 mm 51 W/m2
15:58 8.6 °C 6.1 °C 1008 hPa WSW 20.9 km/h 33.8 km/h 84 % 0 mm 56 W/m2
16:03 8.6 °C 6.1 °C 1008 hPa WSW 17.7 km/h 38.6 km/h 84 % 0 mm 62 W/m2
16:08 8.6 °C 6.1 °C 1007.7 hPa WSW 19.3 km/h 40.2 km/h 84 % 0 mm 58 W/m2
16:13 8.6 °C 6.2 °C 1008 hPa WSW 20.9 km/h 40.2 km/h 85 % 0 mm 58 W/m2
16:18 8.5 °C 6.3 °C 1007.7 hPa WSW 20.9 km/h 38.6 km/h 86 % 0 mm 56 W/m2
16:23 8.5 °C 6.1 °C 1007.7 hPa WSW 24.1 km/h 48.3 km/h 85 % 0 mm 46 W/m2
16:28 8.6 °C 6.2 °C 1007.3 hPa WSW 25.7 km/h 48.3 km/h 85 % 0 mm 49 W/m2
16:33 8.6 °C 6.2 °C 1007 hPa WSW 27.4 km/h 48.3 km/h 85 % 0 mm 63 W/m2
16:38 8.6 °C 6.2 °C 1007 hPa WSW 27.4 km/h 48.3 km/h 85 % 0 mm 62 W/m2
16:43 8.6 °C 6.2 °C 1006.7 hPa WSW 24.1 km/h 41.8 km/h 85 % 0 mm 56 W/m2
16:48 8.6 °C 6.2 °C 1006.7 hPa WSW 25.7 km/h 49.9 km/h 85 % 0 mm 69 W/m2
16:53 8.7 °C 6.3 °C 1006.3 hPa WSW 25.7 km/h 49.9 km/h 85 % 0 mm 63 W/m2
16:58 8.7 °C 6.3 °C 1006 hPa WSW 25.7 km/h 46.7 km/h 85 % 0 mm 49 W/m2
17:03 8.7 °C 6.3 °C 1006.3 hPa WSW 27.4 km/h 46.7 km/h 85 % 0 mm 32 W/m2
17:08 8.7 °C 6.3 °C 1006 hPa WSW 24.1 km/h 46.7 km/h 85 % 0 mm 32 W/m2
17:13 8.7 °C 6.3 °C 1006 hPa WSW 22.5 km/h 40.2 km/h 85 % 0 mm 25 W/m2
17:18 8.6 °C 6.2 °C 1006 hPa WSW 24.1 km/h 43.5 km/h 85 % 0 mm 28 W/m2
17:23 8.6 °C 6.4 °C 1005.6 hPa SW 24.1 km/h 43.5 km/h 86 % 0 mm 25 W/m2
17:28 8.5 °C 6.3 °C 1005.6 hPa SW 22.5 km/h 49.9 km/h 86 % 0 mm 21 W/m2
17:33 8.5 °C 6.3 °C 1005.3 hPa WSW 24.1 km/h 49.9 km/h 86 % 0 mm 18 W/m2
17:38 8.4 °C 6.3 °C 1005.3 hPa WSW 20.9 km/h 41.8 km/h 87 % 0 mm 12 W/m2
17:43 8.4 °C 6.3 °C 1005.3 hPa SW 20.9 km/h 43.5 km/h 87 % 0 mm 9 W/m2
17:48 8.4 °C 6.3 °C 1005 hPa SW 22.5 km/h 43.5 km/h 87 % 0 mm 5 W/m2
17:53 8.5 °C 6.4 °C 1004.6 hPa WSW 20.9 km/h 35.4 km/h 87 % 0 mm 5 W/m2
17:58 8.5 °C 6.4 °C 1004.6 hPa SW 19.3 km/h 35.4 km/h 87 % 0 mm 0 W/m2
18:03 8.5 °C 6.6 °C 1004.6 hPa WSW 22.5 km/h 40.2 km/h 88 % 0 mm 0 W/m2
18:08 8.5 °C 6.6 °C 1004.6 hPa WSW 22.5 km/h 40.2 km/h 88 % 0 mm 0 W/m2
18:13 8.6 °C 6.7 °C 1003.9 hPa SW 22.5 km/h 40.2 km/h 88 % 0 mm 0 W/m2
18:18 8.6 °C 6.6 °C 1003.9 hPa SW 25.7 km/h 48.3 km/h 87 % 0 mm 0 W/m2
18:28 8.7 °C 6.7 °C 1003.9 hPa SW 22.5 km/h 41.8 km/h 87 % 0 mm 0 W/m2
18:33 8.7 °C 6.7 °C 1003.6 hPa WSW 22.5 km/h 46.7 km/h 87 % 0 mm 0 W/m2
18:38 8.7 °C 6.7 °C 1003.6 hPa WSW 24.1 km/h 46.7 km/h 87 % 0 mm 0 W/m2
18:43 8.7 °C 6.7 °C 1003.6 hPa SW 25.7 km/h 45.1 km/h 87 % 0 mm 0 W/m2
18:48 8.7 °C 6.8 °C 1003.6 hPa WSW 27.4 km/h 45.1 km/h 88 % 0 mm 0 W/m2
18:53 8.8 °C 6.9 °C 1003.6 hPa WSW 25.7 km/h 41.8 km/h 88 % 0 mm 0 W/m2
18:58 8.8 °C 6.9 °C 1003.3 hPa SW 22.5 km/h 41.8 km/h 88 % 0 mm 0 W/m2
19:03 8.8 °C 6.9 °C 1003.3 hPa WSW 19.3 km/h 40.2 km/h 88 % 0 mm 0 W/m2
19:08 8.8 °C 6.9 °C 1003.3 hPa SW 20.9 km/h 41.8 km/h 88 % 0 mm 0 W/m2
19:13 8.9 °C 7 °C 1002.9 hPa SW 20.9 km/h 41.8 km/h 88 % 0 mm 0 W/m2
19:18 8.9 °C 7 °C 1002.9 hPa SW 20.9 km/h 35.4 km/h 88 % 0 mm 0 W/m2
19:23 9 °C 7.1 °C 1002.9 hPa WSW 22.5 km/h 38.6 km/h 88 % 0 mm 0 W/m2
19:28 9 °C 7.1 °C 1002.9 hPa WSW 20.9 km/h 40.2 km/h 88 % 0 mm 0 W/m2
19:34 9.1 °C 7.2 °C 1002.3 hPa WSW 20.9 km/h 40.2 km/h 88 % 0 mm 0 W/m2
19:39 9.1 °C 7.2 °C 1002.3 hPa SW 20.9 km/h 38.6 km/h 88 % 0 mm 0 W/m2
19:44 9.2 °C 7.3 °C 1002.3 hPa WSW 20.9 km/h 37 km/h 88 % 0 mm 0 W/m2
19:49 9.2 °C 7.3 °C 1002.3 hPa WSW 19.3 km/h 35.4 km/h 88 % 0 mm 0 W/m2
19:54 9.3 °C 7.4 °C 1001.9 hPa WSW 19.3 km/h 40.2 km/h 88 % 0 mm 0 W/m2
19:59 9.3 °C 7.4 °C 1001.9 hPa WSW 19.3 km/h 40.2 km/h 88 % 0 mm 0 W/m2
20:04 9.4 °C 7.5 °C 1001.9 hPa WSW 17.7 km/h 35.4 km/h 88 % 0 mm 0 W/m2
20:09 9.4 °C 7.5 °C 1001.9 hPa WSW 19.3 km/h 41.8 km/h 88 % 0 mm 0 W/m2
20:14 9.5 °C 7.6 °C 1001.6 hPa WSW 20.9 km/h 41.8 km/h 88 % 0 mm 0 W/m2
20:19 9.5 °C 7.6 °C 1001.6 hPa WSW 20.9 km/h 40.2 km/h 88 % 0 mm 0 W/m2
20:24 9.5 °C 7.6 °C 1001.6 hPa WSW 20.9 km/h 37 km/h 88 % 0 mm 0 W/m2
20:29 9.6 °C 7.7 °C 1001.9 hPa WSW 25.7 km/h 54.7 km/h 88 % 0 mm 0 W/m2
20:34 9.8 °C 7.9 °C 1001.6 hPa WSW 30.6 km/h 54.7 km/h 88 % 0 mm 0 W/m2
20:39 9.8 °C 7.9 °C 1001.6 hPa West 29 km/h 48.3 km/h 88 % 0 mm 0 W/m2
20:44 9.8 °C 7.9 °C 1001.6 hPa WSW 29 km/h 45.1 km/h 88 % 0 mm 0 W/m2
20:49 9.7 °C 7.8 °C 1001.6 hPa WSW 27.4 km/h 45.1 km/h 88 % 0 mm 0 W/m2
20:54 9.7 °C 7.8 °C 1001.6 hPa West 24.1 km/h 43.5 km/h 88 % 0 mm 0 W/m2
20:59 9.6 °C 7.7 °C 1001.6 hPa West 19.3 km/h 41.8 km/h 88 % 0 mm 0 W/m2
21:04 9.6 °C 7.9 °C 1001.6 hPa West 19.3 km/h 43.5 km/h 89 % 0 mm 0 W/m2
21:09 9.6 °C 7.9 °C 1001.6 hPa West 22.5 km/h 45.1 km/h 89 % 0 mm 0 W/m2
21:14 9.7 °C 8 °C 1001.6 hPa West 24.1 km/h 48.3 km/h 89 % 0 mm 0 W/m2
21:19 9.7 °C 8 °C 1001.6 hPa West 27.4 km/h 51.5 km/h 89 % 0 mm 0 W/m2
21:24 9.8 °C 8.1 °C 1001.6 hPa West 25.7 km/h 51.5 km/h 89 % 0 mm 0 W/m2
21:29 9.8 °C 8.2 °C 1001.6 hPa West 25.7 km/h 46.7 km/h 90 % 0 mm 0 W/m2
21:34 9.8 °C 8.2 °C 1001.6 hPa West 22.5 km/h 41.8 km/h 90 % 0 mm 0 W/m2
21:39 9.8 °C 8.2 °C 1001.6 hPa West 24.1 km/h 46.7 km/h 90 % 0 mm 0 W/m2
21:44 9.9 °C 8.3 °C 1001.2 hPa West 27.4 km/h 46.7 km/h 90 % 0 mm 0 W/m2
21:49 9.8 °C 8.2 °C 1001.6 hPa West 24.1 km/h 45.1 km/h 90 % 0 mm 0 W/m2
21:54 9.9 °C 8.3 °C 1001.2 hPa West 22.5 km/h 40.2 km/h 90 % 0 mm 0 W/m2
21:59 9.9 °C 8.5 °C 1001.2 hPa West 24.1 km/h 45.1 km/h 91 % 0 mm 0 W/m2
22:04 10.1 °C 8.7 °C 1001.2 hPa West 25.7 km/h 45.1 km/h 91 % 0 mm 0 W/m2
22:09 10.2 °C 8.8 °C 1001.2 hPa West 24.1 km/h 45.1 km/h 91 % 0 mm 0 W/m2
22:14 10.3 °C 8.7 °C 1000.9 hPa West 20.9 km/h 45.1 km/h 90 % 0 mm 0 W/m2
22:19 10.4 °C 9 °C 1001.2 hPa West 20.9 km/h 41.8 km/h 91 % 0 mm 0 W/m2
22:24 10.5 °C 8.9 °C 1001.2 hPa West 22.5 km/h 41.8 km/h 90 % 0 mm 0 W/m2
22:29 10.7 °C 9.1 °C 1001.2 hPa West 20.9 km/h 37 km/h 90 % 0 mm 0 W/m2
22:34 10.9 °C 9.3 °C 1001.6 hPa West 24.1 km/h 48.3 km/h 90 % 0 mm 0 W/m2
22:39 11.1 °C 9.3 °C 1001.6 hPa West 25.7 km/h 48.3 km/h 89 % 0 mm 0 W/m2
22:44 11.1 °C 9.3 °C 1001.6 hPa WNW 25.7 km/h 49.9 km/h 89 % 0 mm 0 W/m2
22:49 11.2 °C 9.4 °C 1001.2 hPa WNW 24.1 km/h 49.9 km/h 89 % 0 mm 0 W/m2
22:54 11.2 °C 9.4 °C 1001.6 hPa WNW 27.4 km/h 51.5 km/h 89 % 0 mm 0 W/m2
22:59 11.2 °C 9.4 °C 1001.2 hPa WNW 30.6 km/h 51.5 km/h 89 % 0 mm 0 W/m2
23:04 11.2 °C 9.4 °C 1001.2 hPa West 27.4 km/h 51.5 km/h 89 % 0 mm 0 W/m2
23:09 11.2 °C 9.4 °C 1001.2 hPa West 27.4 km/h 48.3 km/h 89 % 0 mm 0 W/m2
23:14 11.2 °C 9.3 °C 1001.2 hPa West 30.6 km/h 51.5 km/h 88 % 0 mm 0 W/m2
23:19 11.3 °C 9.4 °C 1001.2 hPa West 27.4 km/h 51.5 km/h 88 % 0 mm 0 W/m2
23:24 11.3 °C 9.4 °C 1001.2 hPa WNW 24.1 km/h 46.7 km/h 88 % 0 mm 0 W/m2
23:29 11.3 °C 9.4 °C 1001.2 hPa WNW 24.1 km/h 41.8 km/h 88 % 0 mm 0 W/m2
23:34 11.3 °C 9.4 °C 1001.2 hPa WNW 29 km/h 48.3 km/h 88 % 0 mm 0 W/m2
23:39 11.3 °C 9.2 °C 1001.2 hPa WNW 33.8 km/h 56.3 km/h 87 % 0 mm 0 W/m2
23:44 11.3 °C 9.2 °C 1001.2 hPa WNW 32.2 km/h 57.9 km/h 87 % 0 mm 0 W/m2
23:49 11.3 °C 9.2 °C 1001.2 hPa WNW 30.6 km/h 57.9 km/h 87 % 0 mm 0 W/m2
23:54 11.3 °C 9.2 °C 1001.2 hPa WNW 29 km/h 49.9 km/h 87 % 0 mm 0 W/m2
23:59 11.3 °C 9.2 °C 1001.2 hPa WNW 27.4 km/h 49.9 km/h 87 % 0 mm 0 W/m2
Delerius-Weather
Compliments of Weather Underground - 2.25 mb

Data updates at regular intervals.